This is the latest recevied weather packets stored in our database for station/object W3JGB. If no packets are shown the sender has not sent any weather packets the latest 10 day(s).
| Time | Temp. | Humidity | Pressure | Rain* | Wind** | Luminosity | Snow |
|---|---|---|---|---|---|---|---|
| 1778218945 | 3.89° C | 99% | 1012.4 hPa | 0 mm | - | 0 W/m² | - |
| 1778218642 | 3.89° C | 99% | 1012.2 hPa | 0 mm | - | 0 W/m² | - |
| 1778218339 | 3.89° C | 99% | 1012.2 hPa | 0 mm | - | 0 W/m² | - |
| 1778218036 | 3.89° C | 99% | 1012.3 hPa | 0 mm | - | 0 W/m² | - |
| 1778217733 | 4.44° C | 99% | 1012.2 hPa | 0 mm | - | 0 W/m² | - |
| 1778217429 | 4.44° C | 99% | 1012.2 hPa | 0 mm | - | 0 W/m² | - |
| 1778217125 | 4.44° C | 99% | 1012.2 hPa | 0 mm | - | 0 W/m² | - |
| 1778216821 | 4.44° C | 99% | 1012.2 hPa | 0 mm | - | 0 W/m² | - |
| 1778216519 | 5° C | 99% | 1012 hPa | 0 mm | - | 0 W/m² | - |
| 1778216215 | 5° C | 99% | 1012.2 hPa | 0 mm | - | 0 W/m² | - |
| 1778215913 | 5° C | 99% | 1012.2 hPa | 0 mm | - | 0 W/m² | - |
| 1778215610 | 5° C | 99% | 1012.1 hPa | 0 mm | - | 0 W/m² | - |
| 1778215306 | 5° C | 99% | 1011.9 hPa | 0 mm | - | 0 W/m² | - |
| 1778215002 | 5.56° C | 99% | 1011.6 hPa | 0 mm | - | 0 W/m² | - |
| 1778214700 | 5.56° C | 99% | 1011.9 hPa | 0 mm | - | 0 W/m² | - |
| 1778214397 | 6.11° C | 99% | 1011.8 hPa | 0 mm | - | 0 W/m² | - |
| 1778214094 | 5.56° C | 98% | 1011.8 hPa | 0 mm | - | 0 W/m² | - |
| 1778213790 | 6.11° C | 98% | 1011.7 hPa | 0 mm | - | 0 W/m² | - |
| 1778213487 | 6.11° C | 98% | 1011.5 hPa | 0 mm | - | 0 W/m² | - |
| 1778213184 | 6.67° C | 98% | 1011.6 hPa | 0 mm | - | 0 W/m² | - |
| 1778212882 | 6.11° C | 97% | 1011.4 hPa | 0 mm | - | 0 W/m² | - |
| 1778212578 | 6.67° C | 97% | 1011.3 hPa | 0 mm | - | 0 W/m² | - |
| 1778212276 | 6.67° C | 97% | 1011.5 hPa | 0 mm | - | 0 W/m² | - |
| 1778211972 | 6.67° C | 96% | 1011.3 hPa | 0 mm | - | 0 W/m² | - |
| 1778211669 | 7.22° C | 95% | 1011.5 hPa | 0 mm | - | 0 W/m² | - |
* Rain latest hour (hover to see other rain measurements)
** Current wind speed in m/s (hover to see current wind gust speed)